Location: Greenwich
(51.4790°N, 0.0090°E)
Time: 05:01:39
(UTC+01:00)

Tiangong - Pass Details

Date: 04 October 2021
Orbit: 382 x 385 km, 41.5° (Epoch: 18 October)

Event Time Altitude Azimuth Distance (km) Brightness Sun altitude
Exits shadow 05:07:10 12° 165° (SSE) 1,273 3.7 -19.1°
Drops below altitude 10° 05:07:51 10° 153° (SSE) 1,395 4.0 -19.0°
Sets 05:10:40 0° 125° (SE) 2,246 5.5 -18.5°
